BAW1718 EGKK-LEIB

Flight info

Callsign BAW1718
Flight time 1h 57m
Altitude 35000
Route SFD Y47 DRAKE L151 SITET UN859 SOPIL DCT BALAN DCT EVPOK DCT NARAK DCT GAI DCT LOMRA DCT ROCAN/N0495F310 DCT PUMAL DCT XEPLA DCT BCN DCT CORDA
Aircraft B77W/H-SDE1E2E3FGHIJ2J3J4J5M1RWXY/LB1D1

Departure

Time 2026-05-07 13:51
Airport London Gatwick Airport (EGKK)

Arrival

Time 2026-05-07 15:49
Airport Ibiza Airport (LEIB)
Time Latitude Longitude Altitude Speed Heading
2026-05-07 13:25 51.15758 -0.16746 208 ft 0 kts 348°
2026-05-07 13:33 51.15754 -0.16745 208 ft 3 kts 348°
2026-05-07 13:33 51.15736 -0.16739 219 ft 3 kts 348°
2026-05-07 13:33 51.15717 -0.16732 216 ft 2 kts 348°
2026-05-07 13:33 51.15701 -0.16725 214 ft 3 kts 322°
2026-05-07 13:34 51.15691 -0.16705 222 ft 3 kts 273°
2026-05-07 13:34 51.15697 -0.16644 216 ft 3 kts 258°
2026-05-07 13:34 51.15699 -0.16634 216 ft 0 kts 258°
2026-05-07 13:37 51.15698 -0.16636 216 ft 1 kts 258°
2026-05-07 13:38 51.15694 -0.16668 221 ft 4 kts 258°
2026-05-07 13:38 51.15688 -0.16716 222 ft 5 kts 258°
2026-05-07 13:38 51.15680 -0.16773 214 ft 6 kts 258°
2026-05-07 13:38 51.15671 -0.16837 218 ft 6 kts 258°
2026-05-07 13:39 51.15662 -0.16907 219 ft 7 kts 258°
2026-05-07 13:39 51.15651 -0.16984 216 ft 7 kts 258°
2026-05-07 13:39 51.15640 -0.17066 208 ft 8 kts 258°
2026-05-07 13:39 51.15628 -0.17155 213 ft 8 kts 258°
2026-05-07 13:40 51.15614 -0.17248 215 ft 9 kts 255°
2026-05-07 13:40 51.15597 -0.17345 214 ft 9 kts 256°
2026-05-07 13:40 51.15571 -0.17437 214 ft 9 kts 228°
2026-05-07 13:40 51.15535 -0.17523 219 ft 10 kts 255°
2026-05-07 13:41 51.15521 -0.17628 215 ft 10 kts 258°
2026-05-07 13:41 51.15507 -0.17734 214 ft 10 kts 258°
2026-05-07 13:41 51.15492 -0.17840 210 ft 10 kts 258°
2026-05-07 13:41 51.15478 -0.17944 216 ft 10 kts 257°
2026-05-07 13:42 51.15463 -0.18050 216 ft 10 kts 258°
2026-05-07 13:42 51.15449 -0.18156 216 ft 10 kts 258°
2026-05-07 13:42 51.15434 -0.18251 208 ft 8 kts 246°
2026-05-07 13:42 51.15384 -0.18272 216 ft 8 kts 170°
2026-05-07 13:43 51.15327 -0.18255 216 ft 8 kts 167°
2026-05-07 13:43 51.15271 -0.18235 214 ft 8 kts 167°
2026-05-07 13:43 51.15215 -0.18230 220 ft 8 kts 201°
2026-05-07 13:43 51.15186 -0.18307 218 ft 9 kts 262°
2026-05-07 13:44 51.15175 -0.18403 213 ft 9 kts 257°
2026-05-07 13:44 51.15162 -0.18499 216 ft 9 kts 257°
2026-05-07 13:44 51.15148 -0.18594 208 ft 9 kts 257°
2026-05-07 13:44 51.15134 -0.18696 208 ft 10 kts 257°
2026-05-07 13:45 51.15119 -0.18809 211 ft 10 kts 258°
2026-05-07 13:45 51.15104 -0.18922 214 ft 10 kts 258°
2026-05-07 13:45 51.15088 -0.19036 217 ft 10 kts 257°
2026-05-07 13:45 51.15072 -0.19149 217 ft 10 kts 258°
2026-05-07 13:46 51.15058 -0.19242 212 ft 7 kts 244°
2026-05-07 13:46 51.15011 -0.19268 215 ft 8 kts 174°
2026-05-07 13:46 51.14966 -0.19299 221 ft 8 kts 233°
2026-05-07 13:46 51.14949 -0.19381 217 ft 8 kts 257°
2026-05-07 13:47 51.14933 -0.19492 216 ft 14 kts 257°
2026-05-07 13:47 51.14911 -0.19653 221 ft 15 kts 258°
2026-05-07 13:47 51.14888 -0.19814 215 ft 15 kts 257°
2026-05-07 13:47 51.14866 -0.19977 213 ft 15 kts 257°
2026-05-07 13:48 51.14843 -0.20142 212 ft 15 kts 258°
2026-05-07 13:48 51.14820 -0.20308 212 ft 15 kts 257°
2026-05-07 13:48 51.14797 -0.20474 219 ft 15 kts 257°
2026-05-07 13:48 51.14774 -0.20639 208 ft 15 kts 257°
2026-05-07 13:49 51.14752 -0.20805 217 ft 15 kts 257°
2026-05-07 13:49 51.14728 -0.20981 217 ft 21 kts 258°
2026-05-07 13:49 51.14696 -0.21218 214 ft 18 kts 258°
2026-05-07 13:49 51.14663 -0.21330 217 ft 10 kts 204°
2026-05-07 13:50 51.14597 -0.21318 218 ft 10 kts 168°
2026-05-07 13:50 51.14538 -0.21262 217 ft 11 kts 133°
2026-05-07 13:50 51.14525 -0.21147 213 ft 11 kts 82°
2026-05-07 13:50 51.14556 -0.20906 212 ft 45 kts 77°
2026-05-07 13:51 51.14685 -0.19974 218 ft 126 kts 77°
2026-05-07 13:51 51.14925 -0.18278 321 ft 176 kts 77°
2026-05-07 13:51 51.15195 -0.16364 1126 ft 180 kts 80°
2026-05-07 13:51 51.15469 -0.14375 2018 ft 182 kts 78°
2026-05-07 13:52 51.15746 -0.12392 2909 ft 185 kts 82°
2026-05-07 13:52 51.15545 -0.10390 3564 ft 192 kts 125°
2026-05-07 13:52 51.14438 -0.09079 3936 ft 216 kts 163°
2026-05-07 13:52 51.12861 -0.08725 4241 ft 242 kts 176°
2026-05-07 13:53 51.11139 -0.08560 4892 ft 255 kts 177°
2026-05-07 13:53 51.09335 -0.08411 5660 ft 264 kts 178°
2026-05-07 13:53 51.07476 -0.08264 6536 ft 270 kts 178°
2026-05-07 13:53 51.05598 -0.08116 7462 ft 271 kts 177°
2026-05-07 13:54 51.03705 -0.07964 8406 ft 273 kts 177°
2026-05-07 13:54 51.01801 -0.07809 9358 ft 274 kts 177°
2026-05-07 13:54 50.99886 -0.07650 10228 ft 278 kts 177°
2026-05-07 13:54 50.97932 -0.07486 10749 ft 295 kts 177°
2026-05-07 13:55 50.95755 -0.07302 10971 ft 324 kts 177°
2026-05-07 13:55 50.93408 -0.07102 11194 ft 352 kts 177°
2026-05-07 13:55 50.90912 -0.06888 11874 ft 365 kts 177°
2026-05-07 13:55 50.88386 -0.06670 12833 ft 372 kts 177°
2026-05-07 13:56 50.85778 -0.06445 13928 ft 377 kts 177°
2026-05-07 13:56 50.83142 -0.06218 14911 ft 382 kts 178°
2026-05-07 13:56 50.80469 -0.05988 15829 ft 388 kts 178°
2026-05-07 13:56 50.77749 -0.05754 16765 ft 394 kts 178°
2026-05-07 13:57 50.74986 -0.05516 17682 ft 400 kts 178°
2026-05-07 13:57 50.72185 -0.05276 18584 ft 406 kts 178°
2026-05-07 13:57 50.69347 -0.05033 19400 ft 411 kts 178°
2026-05-07 13:57 50.66472 -0.04786 20214 ft 416 kts 179°
2026-05-07 13:58 50.63565 -0.04538 21017 ft 421 kts 179°
2026-05-07 13:58 50.60625 -0.04286 21806 ft 426 kts 179°
2026-05-07 13:58 50.57654 -0.04032 22576 ft 430 kts 179°
2026-05-07 13:58 50.54640 -0.03775 23340 ft 435 kts 179°
2026-05-07 13:59 50.51600 -0.03516 24007 ft 440 kts 179°
2026-05-07 13:59 50.48526 -0.03255 24631 ft 444 kts 179°
2026-05-07 13:59 50.45423 -0.02990 25260 ft 448 kts 179°
2026-05-07 13:59 50.42300 -0.02725 25874 ft 452 kts 179°
2026-05-07 14:00 50.39148 -0.02458 26462 ft 455 kts 179°
2026-05-07 14:00 50.35972 -0.02188 27041 ft 459 kts 179°
2026-05-07 14:00 50.32772 -0.01918 27592 ft 463 kts 179°
2026-05-07 14:00 50.29539 -0.01645 28111 ft 467 kts 179°
2026-05-07 14:01 50.26284 -0.01370 28632 ft 471 kts 179°
2026-05-07 14:01 50.22999 -0.01093 29081 ft 475 kts 179°
2026-05-07 14:01 50.19688 -0.00814 29544 ft 478 kts 179°
2026-05-07 14:01 50.16360 -0.00534 30002 ft 480 kts 179°
2026-05-07 14:02 50.13064 -0.00257 30405 ft 481 kts 179°
2026-05-07 14:02 50.09685 0.00250 30893 ft 482 kts 174°
2026-05-07 14:02 50.06396 0.01264 31439 ft 481 kts 168°
2026-05-07 14:02 50.03204 0.02576 31991 ft 479 kts 167°
2026-05-07 14:03 49.99991 0.03895 32494 ft 478 kts 168°
2026-05-07 14:03 49.96771 0.05198 32971 ft 476 kts 168°
2026-05-07 14:03 49.93562 0.06477 33475 ft 475 kts 168°
2026-05-07 14:03 49.90370 0.07735 33973 ft 473 kts 168°
2026-05-07 14:04 49.87182 0.08984 34357 ft 472 kts 168°
2026-05-07 14:04 49.83999 0.10227 34670 ft 473 kts 168°
2026-05-07 14:04 49.80802 0.11474 34962 ft 474 kts 168°
2026-05-07 14:05 49.75445 0.13563 35030 ft 480 kts 168°
2026-05-07 14:05 49.68947 0.16094 35047 ft 480 kts 168°
2026-05-07 14:06 49.62488 0.18663 35048 ft 478 kts 167°
2026-05-07 14:06 49.56058 0.21269 35048 ft 477 kts 167°
2026-05-07 14:07 49.49641 0.23855 35039 ft 477 kts 167°
2026-05-07 14:07 49.43211 0.26430 35046 ft 478 kts 167°
2026-05-07 14:08 49.36773 0.29001 35050 ft 479 kts 167°
2026-05-07 14:08 49.30320 0.31574 35044 ft 480 kts 167°
2026-05-07 14:09 49.23860 0.34256 35041 ft 481 kts 167°
2026-05-07 14:09 49.17411 0.36989 35027 ft 481 kts 167°
2026-05-07 14:10 49.10956 0.39718 35031 ft 481 kts 167°
2026-05-07 14:10 49.04499 0.42427 35023 ft 481 kts 167°
2026-05-07 14:11 48.98045 0.45124 35021 ft 481 kts 167°
2026-05-07 14:11 48.91593 0.47813 35029 ft 480 kts 167°
2026-05-07 14:12 48.85183 0.50481 35026 ft 480 kts 167°
2026-05-07 14:12 48.78738 0.53152 35029 ft 480 kts 167°
2026-05-07 14:13 48.72264 0.55715 35030 ft 480 kts 168°
2026-05-07 14:13 48.65797 0.58220 35031 ft 480 kts 168°
2026-05-07 14:14 48.59319 0.60749 35028 ft 480 kts 168°
2026-05-07 14:14 48.52846 0.63276 35031 ft 480 kts 168°
2026-05-07 14:15 48.46391 0.65858 35030 ft 480 kts 167°
2026-05-07 14:15 48.39935 0.68501 35027 ft 480 kts 167°
2026-05-07 14:16 48.33524 0.71113 35031 ft 481 kts 167°
2026-05-07 14:16 48.27058 0.73729 35020 ft 481 kts 167°
2026-05-07 14:17 48.20595 0.76305 35024 ft 481 kts 168°
2026-05-07 14:17 48.14126 0.78835 35024 ft 481 kts 168°
2026-05-07 14:18 48.07649 0.81368 35047 ft 482 kts 168°
2026-05-07 14:18 48.04395 0.82642 35239 ft 484 kts 168°
2026-05-07 14:18 48.01134 0.83919 35557 ft 483 kts 168°
2026-05-07 14:18 47.97894 0.85188 35897 ft 482 kts 168°
2026-05-07 14:19 47.94649 0.86456 36197 ft 481 kts 168°
2026-05-07 14:19 47.91407 0.87723 36495 ft 481 kts 168°
2026-05-07 14:19 47.88164 0.88955 36749 ft 481 kts 170°
2026-05-07 14:19 47.84872 0.89796 36940 ft 480 kts 177°
2026-05-07 14:20 47.81537 0.90157 37024 ft 482 kts 179°
2026-05-07 14:20 47.74845 0.90752 37008 ft 478 kts 179°
2026-05-07 14:21 47.68236 0.91385 37014 ft 474 kts 179°
2026-05-07 14:21 47.61651 0.92059 37019 ft 474 kts 179°
2026-05-07 14:22 47.55102 0.92744 37022 ft 475 kts 179°
2026-05-07 14:22 47.48512 0.93433 37028 ft 475 kts 179°
2026-05-07 14:23 47.41914 0.94117 37017 ft 476 kts 179°
2026-05-07 14:23 47.35312 0.94801 37005 ft 476 kts 179°
2026-05-07 14:24 47.28698 0.95484 37016 ft 476 kts 179°
2026-05-07 14:24 47.22091 0.96164 37013 ft 476 kts 179°
2026-05-07 14:25 47.15473 0.96843 37004 ft 476 kts 179°
2026-05-07 14:25 47.08868 0.97520 37006 ft 476 kts 179°
2026-05-07 14:26 47.02266 0.98195 37001 ft 476 kts 179°
2026-05-07 14:26 46.95658 0.98869 36997 ft 475 kts 179°
2026-05-07 14:27 46.89077 0.99538 37000 ft 474 kts 179°
2026-05-07 14:27 46.82486 1.00207 37004 ft 474 kts 179°
2026-05-07 14:28 46.75908 1.00874 36995 ft 474 kts 179°
2026-05-07 14:28 46.69324 1.01540 36996 ft 474 kts 179°
2026-05-07 14:29 46.62786 1.02202 36992 ft 474 kts 179°
2026-05-07 14:29 46.56212 1.02865 36982 ft 474 kts 179°
2026-05-07 14:30 46.49651 1.03878 36984 ft 476 kts 172°
2026-05-07 14:30 46.43191 1.06058 36997 ft 477 kts 170°
2026-05-07 14:31 46.36725 1.08273 36992 ft 477 kts 170°
2026-05-07 14:31 46.30257 1.10448 36983 ft 477 kts 171°
2026-05-07 14:32 46.23793 1.12598 36994 ft 477 kts 171°
2026-05-07 14:32 46.17328 1.14740 36988 ft 477 kts 171°
2026-05-07 14:33 46.10894 1.16868 36983 ft 476 kts 171°
2026-05-07 14:33 46.04431 1.19002 36986 ft 476 kts 171°
2026-05-07 14:34 45.97971 1.21129 36993 ft 476 kts 171°
2026-05-07 14:34 45.91500 1.23255 36995 ft 477 kts 171°
2026-05-07 14:35 45.85039 1.25373 36992 ft 476 kts 171°
2026-05-07 14:35 45.78566 1.27491 36995 ft 476 kts 171°
2026-05-07 14:36 45.72158 1.29582 36992 ft 475 kts 171°
2026-05-07 14:36 45.65715 1.31681 36989 ft 475 kts 171°
2026-05-07 14:37 45.59267 1.33776 36991 ft 475 kts 171°
2026-05-07 14:37 45.49613 1.36908 36988 ft 474 kts 171°
2026-05-07 14:38 45.43182 1.38979 36987 ft 473 kts 171°
2026-05-07 14:38 45.36755 1.41038 36987 ft 473 kts 171°
2026-05-07 14:39 45.30384 1.43080 36989 ft 472 kts 171°
2026-05-07 14:39 45.23975 1.45134 36987 ft 472 kts 171°
2026-05-07 14:40 45.17515 1.47200 36984 ft 472 kts 171°
2026-05-07 14:40 45.11107 1.49245 36993 ft 472 kts 171°
2026-05-07 14:41 45.04700 1.51284 36990 ft 472 kts 171°
2026-05-07 14:41 44.98341 1.53304 36968 ft 472 kts 171°
2026-05-07 14:42 44.91939 1.55333 36983 ft 471 kts 171°
2026-05-07 14:42 44.85530 1.57358 36979 ft 471 kts 171°
2026-05-07 14:43 44.79125 1.59378 36980 ft 471 kts 171°
2026-05-07 14:43 44.72721 1.61394 36976 ft 472 kts 171°
2026-05-07 14:44 44.66309 1.63408 36984 ft 471 kts 171°
2026-05-07 14:44 44.59909 1.65414 36973 ft 471 kts 171°
2026-05-07 14:45 44.53509 1.67416 36981 ft 471 kts 171°
2026-05-07 14:45 44.47152 1.69400 36983 ft 471 kts 171°
2026-05-07 14:46 44.40746 1.71396 36963 ft 471 kts 171°
2026-05-07 14:46 44.34356 1.73385 36976 ft 470 kts 171°
2026-05-07 14:47 44.27958 1.75281 36979 ft 469 kts 174°
2026-05-07 14:47 44.21522 1.76701 36976 ft 468 kts 174°
2026-05-07 14:48 44.15085 1.78077 36984 ft 468 kts 174°
2026-05-07 14:48 44.08698 1.79477 36977 ft 467 kts 174°
2026-05-07 14:49 44.02277 1.80898 36969 ft 467 kts 174°
2026-05-07 14:49 43.95842 1.82305 36973 ft 467 kts 175°
2026-05-07 14:50 43.89402 1.83058 36977 ft 464 kts 180°
2026-05-07 14:50 43.82954 1.83632 36982 ft 464 kts 179°
2026-05-07 14:51 43.76551 1.84231 36974 ft 458 kts 179°
2026-05-07 14:51 43.70213 1.84844 36975 ft 455 kts 179°
2026-05-07 14:52 43.63897 1.85456 36974 ft 455 kts 180°
2026-05-07 14:52 43.58655 1.85963 36974 ft 454 kts 180°
2026-05-07 14:53 43.51281 1.86674 36979 ft 454 kts 180°
2026-05-07 14:53 43.46041 1.87179 36967 ft 455 kts 180°
2026-05-07 14:54 43.38692 1.87889 36956 ft 455 kts 180°
2026-05-07 14:54 43.33402 1.88395 36961 ft 455 kts 180°
2026-05-07 14:55 43.27096 1.88992 36957 ft 454 kts 180°
2026-05-07 14:55 43.20779 1.89591 36951 ft 455 kts 180°
2026-05-07 14:56 43.14506 1.90189 36955 ft 454 kts 180°
2026-05-07 14:56 43.08207 1.90789 36964 ft 453 kts 180°
2026-05-07 14:57 43.01917 1.91387 36956 ft 453 kts 180°
2026-05-07 14:57 42.95645 1.91983 36963 ft 450 kts 181°
2026-05-07 14:58 42.89414 1.92575 36966 ft 448 kts 181°
2026-05-07 14:58 42.83197 1.93163 36972 ft 447 kts 181°
2026-05-07 14:59 42.77008 1.93748 36985 ft 446 kts 181°
2026-05-07 14:59 42.70813 1.94333 36982 ft 446 kts 181°
2026-05-07 15:00 42.64621 1.95152 36969 ft 449 kts 176°
2026-05-07 15:00 42.58436 1.96434 36971 ft 449 kts 177°
2026-05-07 15:01 42.52255 1.97698 36979 ft 449 kts 177°
2026-05-07 15:01 42.46086 1.98948 36973 ft 449 kts 177°
2026-05-07 15:02 42.39950 2.00184 36986 ft 448 kts 177°
2026-05-07 15:02 42.33788 2.01168 36977 ft 443 kts 181°
2026-05-07 15:03 42.27638 2.01714 36974 ft 442 kts 181°
2026-05-07 15:03 42.21497 2.02274 36942 ft 441 kts 181°
2026-05-07 15:04 42.15387 2.02845 36964 ft 440 kts 181°
2026-05-07 15:04 42.09275 2.03426 36968 ft 440 kts 181°
2026-05-07 15:05 42.03160 2.04005 36969 ft 441 kts 181°
2026-05-07 15:05 41.97031 2.04583 36971 ft 442 kts 181°
2026-05-07 15:06 41.90886 2.05161 36960 ft 442 kts 181°
2026-05-07 15:06 41.84783 2.05735 36962 ft 442 kts 181°
2026-05-07 15:07 41.78641 2.06313 36963 ft 442 kts 181°
2026-05-07 15:07 41.72524 2.06889 36970 ft 441 kts 181°
2026-05-07 15:08 41.66403 2.07458 36967 ft 440 kts 181°
2026-05-07 15:08 41.60297 2.08022 36969 ft 439 kts 181°
2026-05-07 15:09 41.54197 2.08589 36954 ft 439 kts 181°
2026-05-07 15:09 41.48115 2.09156 36968 ft 437 kts 181°
2026-05-07 15:10 41.42051 2.09722 36968 ft 434 kts 181°
2026-05-07 15:10 41.36035 2.10283 36963 ft 432 kts 181°
2026-05-07 15:11 41.30043 2.10866 36951 ft 433 kts 179°
2026-05-07 15:11 41.24068 2.11847 36972 ft 436 kts 178°
2026-05-07 15:12 41.18034 2.12876 36967 ft 438 kts 178°
2026-05-07 15:12 41.11968 2.13902 36967 ft 440 kts 178°
2026-05-07 15:13 41.05849 2.14928 36961 ft 441 kts 178°
2026-05-07 15:13 40.99787 2.15940 36961 ft 442 kts 178°
2026-05-07 15:14 40.93673 2.16958 36959 ft 443 kts 178°
2026-05-07 15:14 40.87547 2.17977 36936 ft 443 kts 178°
2026-05-07 15:15 40.81429 2.18993 36954 ft 443 kts 178°
2026-05-07 15:15 40.75307 2.20008 36955 ft 443 kts 178°
2026-05-07 15:16 40.69188 2.21020 36957 ft 443 kts 178°
2026-05-07 15:16 40.63071 2.22031 36957 ft 443 kts 178°
2026-05-07 15:17 40.56955 2.23040 36952 ft 443 kts 178°
2026-05-07 15:17 40.50876 2.24043 36948 ft 443 kts 178°
2026-05-07 15:18 40.44722 2.25056 36932 ft 442 kts 178°
2026-05-07 15:18 40.38663 2.26182 36939 ft 444 kts 175°
2026-05-07 15:19 40.32591 2.27776 36947 ft 445 kts 173°
2026-05-07 15:19 40.26527 2.29426 36925 ft 445 kts 174°
2026-05-07 15:20 40.20464 2.31024 36929 ft 443 kts 174°
2026-05-07 15:20 40.14417 2.32586 36940 ft 443 kts 174°
2026-05-07 15:21 40.08368 2.34141 36921 ft 443 kts 174°
2026-05-07 15:21 40.02360 2.35684 36935 ft 443 kts 174°
2026-05-07 15:22 39.96311 2.37236 36929 ft 443 kts 175°
2026-05-07 15:22 39.90265 2.38786 36930 ft 443 kts 175°
2026-05-07 15:23 39.84202 2.40340 36930 ft 444 kts 174°
2026-05-07 15:23 39.78138 2.41889 36930 ft 444 kts 175°
2026-05-07 15:24 39.72099 2.42419 36928 ft 429 kts 192°
2026-05-07 15:24 39.66178 2.41299 36882 ft 432 kts 192°
2026-05-07 15:25 39.63153 2.40809 36126 ft 442 kts 191°
2026-05-07 15:25 39.60116 2.40333 35435 ft 435 kts 193°
2026-05-07 15:25 39.57274 2.39166 34666 ft 427 kts 207°
2026-05-07 15:25 39.54749 2.37164 33839 ft 424 kts 216°
2026-05-07 15:26 39.52501 2.34669 32725 ft 428 kts 225°
2026-05-07 15:26 39.50705 2.31606 31754 ft 429 kts 233°
2026-05-07 15:26 39.49105 2.28372 30899 ft 428 kts 234°
2026-05-07 15:26 39.47520 2.25126 30189 ft 424 kts 234°
2026-05-07 15:27 39.45943 2.21918 29392 ft 421 kts 234°
2026-05-07 15:27 39.44364 2.18746 28644 ft 416 kts 233°
2026-05-07 15:27 39.42797 2.15633 28018 ft 411 kts 233°
2026-05-07 15:27 39.41236 2.12552 27353 ft 407 kts 233°
2026-05-07 15:28 39.39686 2.09508 26699 ft 404 kts 233°
2026-05-07 15:28 39.38143 2.06487 26073 ft 401 kts 233°
2026-05-07 15:28 39.36611 2.03492 25472 ft 398 kts 233°
2026-05-07 15:28 39.35083 2.00508 24866 ft 399 kts 233°
2026-05-07 15:29 39.33546 1.97508 24270 ft 404 kts 233°
2026-05-07 15:29 39.31990 1.94480 23640 ft 415 kts 234°
2026-05-07 15:29 39.30381 1.91345 22911 ft 420 kts 234°
2026-05-07 15:29 39.28770 1.88205 22240 ft 417 kts 234°
2026-05-07 15:30 39.27174 1.85096 21595 ft 414 kts 234°
2026-05-07 15:30 39.25593 1.82020 20986 ft 410 kts 234°
2026-05-07 15:30 39.24016 1.78959 20362 ft 407 kts 234°
2026-05-07 15:30 39.22450 1.75918 19765 ft 404 kts 234°
2026-05-07 15:31 39.20898 1.72909 19181 ft 402 kts 234°
2026-05-07 15:31 39.19314 1.69977 18600 ft 399 kts 232°
2026-05-07 15:31 39.17646 1.67142 17997 ft 397 kts 230°
2026-05-07 15:31 39.15952 1.64337 17346 ft 395 kts 230°
2026-05-07 15:32 39.14270 1.61553 16751 ft 392 kts 230°
2026-05-07 15:32 39.12616 1.58799 16182 ft 389 kts 231°
2026-05-07 15:32 39.10969 1.56039 15610 ft 388 kts 231°
2026-05-07 15:32 39.09334 1.53290 15061 ft 387 kts 231°
2026-05-07 15:33 39.07695 1.50545 14512 ft 386 kts 232°
2026-05-07 15:33 39.06076 1.47817 13936 ft 386 kts 232°
2026-05-07 15:33 39.04452 1.45080 13332 ft 383 kts 232°
2026-05-07 15:33 39.02857 1.42349 12767 ft 381 kts 232°
2026-05-07 15:34 39.01283 1.39621 12304 ft 377 kts 233°
2026-05-07 15:34 38.99748 1.36960 12166 ft 364 kts 232°
2026-05-07 15:34 38.98275 1.34413 11993 ft 353 kts 232°
2026-05-07 15:34 38.96834 1.31925 11849 ft 342 kts 232°
2026-05-07 15:35 38.95434 1.29514 11694 ft 331 kts 232°
2026-05-07 15:35 38.94081 1.27185 11569 ft 320 kts 232°
2026-05-07 15:35 38.92768 1.24926 11443 ft 310 kts 232°
2026-05-07 15:35 38.91499 1.22746 11315 ft 300 kts 232°
2026-05-07 15:36 38.90264 1.20625 11192 ft 291 kts 232°
2026-05-07 15:36 38.89072 1.18577 11065 ft 280 kts 232°
2026-05-07 15:36 38.88010 1.16516 10816 ft 275 kts 239°
2026-05-07 15:36 38.87130 1.14366 10629 ft 269 kts 242°
2026-05-07 15:37 38.86292 1.12254 10483 ft 262 kts 242°
2026-05-07 15:37 38.85465 1.10207 10278 ft 254 kts 241°
2026-05-07 15:37 38.84647 1.08219 9825 ft 252 kts 242°
2026-05-07 15:37 38.83814 1.06217 9268 ft 257 kts 241°
2026-05-07 15:38 38.82970 1.04192 9004 ft 256 kts 241°
2026-05-07 15:38 38.82136 1.02197 8744 ft 253 kts 241°
2026-05-07 15:38 38.81303 1.00209 8412 ft 253 kts 241°
2026-05-07 15:38 38.80481 0.98248 8106 ft 252 kts 242°
2026-05-07 15:39 38.79649 0.96264 7786 ft 252 kts 241°
2026-05-07 15:39 38.78647 0.94471 7402 ft 248 kts 225°
2026-05-07 15:39 38.77382 0.92961 7081 ft 249 kts 220°
2026-05-07 15:39 38.76081 0.91510 6805 ft 244 kts 215°
2026-05-07 15:40 38.75090 0.90834 6446 ft 245 kts 193°
2026-05-07 15:40 38.72868 0.90994 5964 ft 239 kts 157°
2026-05-07 15:40 38.71849 0.91566 5810 ft 235 kts 149°
2026-05-07 15:40 38.70413 0.93493 5490 ft 227 kts 108°
2026-05-07 15:41 38.70214 0.94781 5516 ft 224 kts 91°
2026-05-07 15:41 38.70416 0.96721 5483 ft 219 kts 70°
2026-05-07 15:41 38.71077 0.98453 5511 ft 216 kts 62°
2026-05-07 15:41 38.71817 1.00133 5507 ft 217 kts 62°
2026-05-07 15:42 38.72563 1.01844 5389 ft 226 kts 63°
2026-05-07 15:42 38.73325 1.03641 5122 ft 231 kts 63°
2026-05-07 15:42 38.74082 1.05451 4864 ft 230 kts 63°
2026-05-07 15:42 38.74831 1.07254 4585 ft 229 kts 63°
2026-05-07 15:43 38.75575 1.09048 4312 ft 227 kts 63°
2026-05-07 15:43 38.76313 1.10826 4092 ft 223 kts 63°
2026-05-07 15:43 38.77035 1.12568 3803 ft 221 kts 63°
2026-05-07 15:43 38.77753 1.14299 3531 ft 217 kts 63°
2026-05-07 15:44 38.78453 1.15988 3281 ft 209 kts 63°
2026-05-07 15:44 38.79102 1.17555 3055 ft 190 kts 62°
2026-05-07 15:44 38.79697 1.18990 2801 ft 174 kts 63°
2026-05-07 15:44 38.80238 1.20298 2582 ft 159 kts 63°
2026-05-07 15:45 38.80759 1.21556 2459 ft 160 kts 63°
2026-05-07 15:45 38.81280 1.22814 2251 ft 157 kts 63°
2026-05-07 15:45 38.81780 1.24019 2042 ft 148 kts 63°
2026-05-07 15:45 38.82234 1.25115 1867 ft 134 kts 63°
2026-05-07 15:46 38.83131 1.27282 1504 ft 138 kts 63°
2026-05-07 15:46 38.83579 1.28366 1324 ft 135 kts 62°
2026-05-07 15:46 38.84023 1.29438 1130 ft 138 kts 62°
2026-05-07 15:47 38.84471 1.30519 941 ft 138 kts 62°
2026-05-07 15:47 38.84914 1.31620 790 ft 138 kts 65°
2026-05-07 15:47 38.85341 1.32706 647 ft 138 kts 63°
2026-05-07 15:47 38.85819 1.33798 423 ft 140 kts 63°
2026-05-07 15:48 38.86269 1.34869 248 ft 133 kts 64°
2026-05-07 15:48 38.86691 1.35885 54 ft 132 kts 63°
2026-05-07 15:48 38.87093 1.36850 36 ft 106 kts 62°
2026-05-07 15:48 38.87342 1.37451 34 ft 51 kts 62°
2026-05-07 15:49 38.87448 1.37697 32 ft 22 kts 54°
2026-05-07 15:49 38.87554 1.37832 34 ft 22 kts 36°
2026-05-07 15:49 38.87612 1.37881 34 ft 8 kts 32°
2026-05-07 15:49 38.87660 1.37917 34 ft 8 kts 22°
2026-05-07 15:50 38.87708 1.37896 34 ft 8 kts 295°
2026-05-07 15:50 38.87687 1.37828 34 ft 9 kts 239°
2026-05-07 15:50 38.87657 1.37761 34 ft 8 kts 241°
2026-05-07 15:50 38.87629 1.37696 34 ft 9 kts 241°
2026-05-07 15:51 38.87602 1.37632 34 ft 6 kts 241°
2026-05-07 15:51 38.87584 1.37587 34 ft 3 kts 249°
2026-05-07 15:51 38.87575 1.37560 34 ft 4 kts 247°
2026-05-07 15:51 38.87561 1.37522 34 ft 5 kts 244°
2026-05-07 15:52 38.87543 1.37474 34 ft 7 kts 242°
2026-05-07 15:52 38.87528 1.37440 34 ft 4 kts 240°
2026-05-07 15:52 38.87524 1.37404 34 ft 4 kts 296°
2026-05-07 15:52 38.87548 1.37387 34 ft 4 kts 333°
2026-05-07 15:53 38.87572 1.37372 34 ft 4 kts 333°
2026-05-07 15:53 38.87587 1.37362 34 ft 1 kts 332°
2026-05-07 15:53 38.87588 1.37361 34 ft 0 kts 332°